TimeEDT,TemperatureF,Dew PointF,Humidity,Sea Level PressureIn,VisibilityMPH,Wind Direction,Wind SpeedMPH,Gust SpeedMPH,PrecipitationIn,Events,Conditions,WindDirDegrees,DateUTC
12:15 AM,27.7,25.0,90,30.36,10.0,Calm,Calm,-,N/A,,Clear,0,2013-10-26 04:15:00
12:35 AM,27.0,24.1,89,30.35,10.0,Calm,Calm,-,N/A,,Clear,0,2013-10-26 04:35:00
12:55 AM,27.0,24.6,91,30.35,10.0,Calm,Calm,-,N/A,,Clear,0,2013-10-26 04:55:00
1:15 AM,26.2,23.7,90,30.35,10.0,Calm,Calm,-,N/A,,Clear,0,2013-10-26 05:15:00
1:35 AM,26.4,24.1,91,30.35,10.0,Calm,Calm,-,N/A,,Clear,0,2013-10-26 05:35:00
1:55 AM,25.7,23.2,90,30.35,10.0,Calm,Calm,-,N/A,,Clear,0,2013-10-26 05:55:00
2:15 AM,25.7,23.7,92,30.34,10.0,Calm,Calm,-,N/A,,Clear,0,2013-10-26 06:15:00
2:35 AM,24.8,22.3,90,30.34,10.0,Calm,Calm,-,N/A,,Clear,0,2013-10-26 06:35:00
2:55 AM,25.0,22.8,91,30.34,10.0,Calm,Calm,-,N/A,,Clear,0,2013-10-26 06:55:00
3:15 AM,24.8,22.6,91,30.33,10.0,Calm,Calm,-,N/A,,Clear,0,2013-10-26 07:15:00
3:35 AM,24.8,22.5,91,30.33,10.0,Calm,Calm,-,N/A,,Clear,0,2013-10-26 07:35:00
3:55 AM,24.3,22.1,91,30.33,10.0,Calm,Calm,-,N/A,,Clear,0,2013-10-26 07:55:00
4:15 AM,23.9,21.9,92,30.32,10.0,Calm,Calm,-,N/A,,Clear,0,2013-10-26 08:15:00
4:35 AM,23.9,21.2,89,30.32,10.0,Calm,Calm,-,N/A,,Clear,0,2013-10-26 08:35:00
4:55 AM,23.5,21.2,91,30.32,10.0,Calm,Calm,-,N/A,,Clear,0,2013-10-26 08:55:00
5:15 AM,23.0,20.3,89,30.32,10.0,Calm,Calm,-,N/A,,Clear,0,2013-10-26 09:15:00
5:35 AM,22.8,20.3,90,30.33,10.0,Calm,Calm,-,N/A,,Clear,0,2013-10-26 09:35:00
5:55 AM,22.8,20.7,91,30.33,10.0,Calm,Calm,-,N/A,,Clear,0,2013-10-26 09:55:00
6:15 AM,22.8,20.3,90,30.33,10.0,Calm,Calm,-,N/A,,Scattered Clouds,0,2013-10-26 10:15:00
6:35 AM,22.1,19.8,91,30.33,10.0,Calm,Calm,-,N/A,,Scattered Clouds,0,2013-10-26 10:35:00
6:55 AM,22.1,20.1,92,30.33,10.0,Calm,Calm,-,N/A,,Clear,0,2013-10-26 10:55:00
7:15 AM,22.1,19.9,91,30.33,10.0,Calm,Calm,-,N/A,,Clear,0,2013-10-26 11:15:00
7:35 AM,21.4,19.0,91,30.33,10.0,Calm,Calm,-,N/A,,Clear,0,2013-10-26 11:35:00
7:55 AM,21.6,19.4,91,30.33,10.0,Calm,Calm,-,N/A,,Clear,0,2013-10-26 11:55:00
8:15 AM,21.6,19.2,91,30.33,10.0,Calm,Calm,-,N/A,,Clear,0,2013-10-26 12:15:00
8:35 AM,22.5,20.3,91,30.34,10.0,Calm,Calm,-,N/A,,Scattered Clouds,0,2013-10-26 12:35:00
8:55 AM,24.4,21.9,90,30.34,10.0,Calm,Calm,-,N/A,,Mostly Cloudy,0,2013-10-26 12:55:00
9:15 AM,26.4,24.3,92,30.34,5.0,Calm,Calm,-,N/A,,Scattered Clouds,0,2013-10-26 13:15:00
9:35 AM,28.2,25.7,90,30.34,10.0,Calm,Calm,-,N/A,,Clear,0,2013-10-26 13:35:00
9:55 AM,31.3,27.9,87,30.33,10.0,Calm,Calm,-,N/A,,Clear,0,2013-10-26 13:55:00
10:15 AM,32.7,28.0,83,30.33,10.0,Calm,Calm,-,N/A,,Clear,0,2013-10-26 14:15:00
10:35 AM,34.2,27.3,76,30.32,10.0,Calm,Calm,-,N/A,,Clear,0,2013-10-26 14:35:00
10:55 AM,36.5,26.4,67,30.31,10.0,Calm,Calm,-,N/A,,Clear,0,2013-10-26 14:55:00
11:15 AM,39.4,27.1,62,30.31,10.0,Calm,Calm,-,N/A,,Clear,0,2013-10-26 15:15:00
11:35 AM,42.1,27.5,56,30.30,10.0,Calm,Calm,-,N/A,,Clear,0,2013-10-26 15:35:00
11:55 AM,44.2,27.3,51,30.29,10.0,Calm,Calm,-,N/A,,Clear,0,2013-10-26 15:55:00
12:15 PM,46.4,27.0,47,30.29,10.0,Calm,Calm,-,N/A,,Clear,0,2013-10-26 16:15:00
12:35 PM,47.8,27.3,45,30.27,10.0,Calm,Calm,-,N/A,,Clear,0,2013-10-26 16:35:00
12:55 PM,49.1,25.3,40,30.25,10.0,Calm,Calm,-,N/A,,Clear,0,2013-10-26 16:55:00
1:15 PM,51.8,25.9,37,30.23,10.0,NE,4.6,-,N/A,,Clear,50,2013-10-26 17:15:00
1:35 PM,52.0,24.4,34,30.23,10.0,ESE,4.6,-,N/A,,Clear,120,2013-10-26 17:35:00
1:55 PM,53.8,24.6,32,30.20,10.0,ESE,5.8,-,N/A,,Clear,110,2013-10-26 17:55:00
2:15 PM,55.0,24.1,30,30.19,10.0,Calm,Calm,-,N/A,,Clear,0,2013-10-26 18:15:00
2:35 PM,55.8,23.9,29,30.18,10.0,SSE,3.5,-,N/A,,Clear,150,2013-10-26 18:35:00
2:55 PM,56.3,23.7,28,30.17,10.0,ESE,4.6,-,N/A,,Clear,120,2013-10-26 18:55:00
3:15 PM,56.3,23.2,28,30.16,10.0,Calm,Calm,-,N/A,,Clear,0,2013-10-26 19:15:00
3:35 PM,57.4,23.2,27,30.16,10.0,Calm,Calm,-,N/A,,Clear,0,2013-10-26 19:35:00
3:55 PM,57.9,23.9,27,30.16,10.0,North,4.6,-,N/A,,Clear,10,2013-10-26 19:55:00
4:15 PM,57.9,23.7,27,30.16,10.0,Calm,Calm,-,N/A,,Clear,0,2013-10-26 20:15:00
4:35 PM,57.7,25.0,28,30.16,10.0,NNW,4.6,-,N/A,,Clear,340,2013-10-26 20:35:00
4:55 PM,58.6,24.8,27,30.15,10.0,Calm,Calm,-,N/A,,Clear,0,2013-10-26 20:55:00
5:15 PM,58.8,25.2,28,30.15,10.0,Calm,Calm,-,N/A,,Mostly Cloudy,0,2013-10-26 21:15:00
5:35 PM,58.1,24.8,28,30.15,10.0,Calm,Calm,-,N/A,,Mostly Cloudy,0,2013-10-26 21:35:00
5:55 PM,57.4,21.9,25,30.14,10.0,North,4.6,-,N/A,,Clear,350,2013-10-26 21:55:00
6:15 PM,55.8,26.1,32,30.14,5.0,Calm,Calm,-,N/A,,Haze,0,2013-10-26 22:15:00
6:35 PM,52.2,32.5,47,30.14,10.0,Calm,Calm,-,N/A,,Overcast,0,2013-10-26 22:35:00
6:55 PM,51.8,33.4,50,30.14,10.0,Calm,Calm,-,N/A,,Overcast,0,2013-10-26 22:55:00
7:15 PM,50.5,36.0,57,30.14,10.0,Calm,Calm,-,N/A,,Overcast,0,2013-10-26 23:15:00
7:35 PM,48.7,36.9,64,30.15,10.0,Calm,Calm,-,N/A,,Overcast,0,2013-10-26 23:35:00
7:55 PM,46.9,36.0,66,30.14,10.0,Calm,Calm,-,N/A,,Overcast,0,2013-10-26 23:55:00
8:15 PM,43.7,35.2,72,30.14,10.0,Calm,Calm,-,N/A,,Scattered Clouds,0,2013-10-27 00:15:00
8:35 PM,42.3,35.1,76,30.15,10.0,Calm,Calm,-,N/A,,Scattered Clouds,0,2013-10-27 00:35:00
8:55 PM,40.8,34.3,78,30.15,10.0,Calm,Calm,-,N/A,,Scattered Clouds,0,2013-10-27 00:55:00
9:15 PM,40.1,34.3,80,30.15,10.0,Calm,Calm,-,N/A,,Clear,0,2013-10-27 01:15:00
9:35 PM,38.8,34.5,84,30.16,10.0,Calm,Calm,-,N/A,,Clear,0,2013-10-27 01:35:00
9:55 PM,40.5,35.4,82,30.16,10.0,Calm,Calm,-,N/A,,Mostly Cloudy,0,2013-10-27 01:55:00
10:15 PM,41.2,35.6,81,30.16,10.0,Calm,Calm,-,N/A,,Mostly Cloudy,0,2013-10-27 02:15:00
10:35 PM,40.5,35.6,83,30.16,10.0,Calm,Calm,-,N/A,,Scattered Clouds,0,2013-10-27 02:35:00
10:55 PM,40.1,34.9,82,30.16,10.0,Calm,Calm,-,N/A,,Scattered Clouds,0,2013-10-27 02:55:00
11:15 PM,39.9,35.6,85,30.15,7.0,Calm,Calm,-,N/A,,Mostly Cloudy,0,2013-10-27 03:15:00
11:35 PM,39.6,35.1,84,30.15,10.0,Calm,Calm,-,N/A,,Scattered Clouds,0,2013-10-27 03:35:00
11:55 PM,39.0,35.1,86,30.14,10.0,Calm,Calm,-,N/A,,Scattered Clouds,0,2013-10-27 03:55:00